Regional Weather Roundup
Issued by NWS

Home | Current Version | Previous Version | Text Only | Print | Product List | Glossary On
Versions: 1 2 3 4 5 6 7 8 9 10 11 12 13 14 15 16 17 18 19 20 21 22 23 24 25 26 27 28 29 30 31 32 33 34 35 36 37 38 39 40 41 42 43 44 45 46 47 48 49 50
000
ASHW40 PHFO 291343
RWRHI

WEATHER ROUNDUP FOR HAWAII
NATIONAL WEATHER SERVICE HONOLULU HI
300 AM HST SUN MAR 29 2015

THIS IS AN AUTOMATED REPORT THAT HAS NOT BEEN QUALITY CONTROLLED.

NOTE..."FAIR" INDICATES FEW OR NO CLOUDS BELOW 12,000 FEET WITH NO
SIGNIFICANT WEATHER AND/OR OBSTRUCTIONS TO VISIBILITY.

* - THESE SITES REPORT LIMITED FIELDS

HIZ001>004-291400-
KAUAI-NIIHAU-

CITY           SKY/WX    TMP DP  RH WIND       PRES   REMARKS
LIHUE APT      LGT RAIN  73  68  83 N8G21     30.12F
PORT ALLEN*      N/A     66 N/A N/A NE6         N/A
POIPU*           N/A     70 N/A N/A VRB3        N/A
PRINCEVILLE*     N/A     68 N/A N/A MISG        N/A
KOKOLE POINT*  NOT AVBL
MOLOAA DAIRY*  NOT AVBL
WAIMEA HTS*      N/A     68  55  64 NW3         N/A
PUU OPAE*        N/A     63  57  82 CALM        N/A
PUU LUA*       NOT AVBL
MAKAHA RIDGE*  NOT AVBL
$$

HIZ005>011-291400-
OAHU-

CITY           SKY/WX    TMP DP  RH WIND       PRES   REMARKS
HONOLULU       MOCLDY    69  69 100 N3        30.10F
KALAELOA       MOCLDY    71  66  84 CALM      30.12F
KANEOHE MCB    MOCLDY    73  69  87 NE8       30.08F
WHEELER FIELD  MOCLDY    68  66  94 NW5       30.12F
BELLOWS*         N/A    N/A N/A N/A NE17        N/A
KAHUKU*          N/A    N/A N/A N/A NE6G12      N/A
WHEELER*       NOT AVBL
WAIANAE HARBOR NOT AVBL
DILLINGHAM*      N/A     70  68  94 MISG        N/A
KAHUKU TRN*      N/A     70  66  88 E7G18       N/A
KAWAILOA*        N/A     66  66 100 E5G12       N/A
KII*             N/A     73  70  88 NE13G18     N/A
MAKUA RANGE*     N/A     72  66  83 E10         N/A
OAHU FOREST NW   N/A    N/A N/A N/A CALM        N/A
SCHOFIELD BRK*   N/A     66  66 100 NE1         N/A
SCHOFIELD S*   NOT AVBL
WAIANAE VLY*     N/A     70  66  88 N3G9        N/A
KUAOKALA*        N/A     68  64  88 CALM        N/A
HONOULIUULI*   NOT AVBL
MOKUOLOE IS*     N/A    N/A N/A N/A MISG        N/A
PALEHUA*         N/A     77  68  73 CALM        N/A
WAIAWA PHB*    NOT AVBL
$$

HIZ012>013-291400-
MOLOKAI-

CITY           SKY/WX    TMP DP  RH WIND       PRES   REMARKS
MOLOKAI AIRPT  PTCLDY    63  63 100 CALM      30.12F
KALAUPAPA      NOT AVBL
MAKAPULAPAI*     N/A     70  64  83 SE6         N/A
MOLOKAI 1*       N/A     61  61 100 SE3G9       N/A
PUU ALII*        N/A     57  57 100 CALM        N/A
$$

HIZ016-291400-
KAHOOLAWE-

CITY           SKY/WX    TMP DP  RH WIND       PRES   REMARKS
KAHOOLAWE*       N/A     66 N/A N/A E10G17      N/A
HAKIOAWA*        N/A     68  63  85 MISG      30.53F
HONOKANAIA*      N/A     73  64  73 NE13G22   30.12F
KANELOA*         N/A     72  66  83 MISG      29.35F
KEALIALALO*      N/A     70  64  83 E8G21     30.11F
LUA MAKIKA*    NOT AVBL
$$

HIZ014>015-291400-
LANAI-

CITY           SKY/WX    TMP DP  RH WIND       PRES   REMARKS
LANAI CITY       N/A    N/A N/A N/A MISG        N/A
LANAI 1*         N/A     68  68 100 NE12        N/A
$$

HIZ017>028-291400-
MAUI-

CITY           SKY/WX    TMP DP  RH WIND       PRES   REMARKS
KAHULUI          N/A     67  62  84 SE7       30.11F
KAPALUA-W MAUI NOT AVBL
HANA AIRPORT   MOCLDY    72  68  88 SE5       30.14S
HANA*            N/A     72 N/A N/A S5          N/A
HALEAKALA SUMM   N/A     48  -6  10 E13         N/A
MAALAEA BAY*   NOT AVBL
HALEAKALA*     NOT AVBL
KAUPO GAP*       N/A     54  46  76 SW3G10      N/A
KULA 1*          N/A     55  -3   9 E5G10       N/A
$$

HIZ023>026-291400-
BIG ISLAND OF HAWAII COAST AND LOWER SLOPES-

CITY           SKY/WX    TMP DP  RH WIND       PRES   REMARKS
KAILUA KONA    PTCLDY    73  61  65 CALM      30.08F
HILO           MOCLDY    66  61  84 SW8       30.13F
HONOKAA*       NOT AVBL
KAWAIHAE MWT*    N/A     72 N/A N/A E1          N/A
KAWAIHAE*        N/A     73 N/A N/A N1          N/A
SOUTH POINT*     N/A     68 N/A N/A NE14G20     N/A
UPOLU AIRPORT*   N/A    N/A N/A N/A E10         N/A
KAMUELA*       SUNNY     54  54 100 E8        30.18F
HAKALAU*         N/A    N/A N/A N/A W6          N/A
KALOKO-HONOKO*   N/A     70  57  64 NE5       30.07F
PALI 2*          N/A     61  57  88 NE6G16      N/A
KEALAKOMO*       N/A     73  63  68 N9          N/A
KAUPULEHU*       N/A     64  54  68 SE8         N/A
KAPAPALA*        N/A     60  59  95 CALM        N/A
LOWER KAHUKU*    N/A     61  57  88 VRB3G10     N/A
PUHE CS*         N/A     72  61  68 NE3G12      N/A
PUHO CS*         N/A     71  56  58 E3          N/A
PTA KEAMUKU*     N/A     54  48  82 CALM        N/A
WAIKOLOA*        N/A     64  52  63 SE7         N/A
$$

HIZ027>028-291400-
BIG ISLAND OF HAWAII INTERIOR AND SUMMMITS-

CITY           SKY/WX    TMP DP  RH WIND       PRES   REMARKS
BRADSHAW FIELD CLOUDY    42  26  52 N2        30.38F
MK VISITOR CEN NOT AVBL
MAUNA KEA*       N/A     34  -2  21 SE12        N/A  WCI  25
MAUNA LOA*       N/A     41   3  20 MISG        N/A
MAUNA LOA 1*   NOT AVBL
PTA KIPUKA*      N/A     43  39  87 E3          N/A
PTA RANGE 17*    N/A     48  41  76 SE8         N/A
PTA WEST*        N/A     46  43  87 SE12        N/A
NENE CABIN*      N/A     46  14  27 NE5G10      N/A
AHUMOA*          N/A    N/A N/A N/A NE5G12      N/A
PTA PORTABLE*  NOT AVBL
PUU MALI*      NOT AVBL
$$

HIC003-291400-
NORTHWEST ISLANDS-

CITY           SKY/WX    TMP DP  RH WIND       PRES   REMARKS
MIDWAY ISLAND  CLOUDY    61  46  59 NE10      30.39S
MIDWAY NOS*    NOT AVBL
FRENCH FRIGATE NOT AVBL
$$

PHZ110>124-180-291400-
BUOY REPORTS

STATION/POSITION TIME  TEMP    WIND        PRES    WAVE   SWELL
                       AIR SEA DIR/SP/G            HT/PER HT/DIR
                 (UTC) (F)     (DEG/KT/KT) (MB)    (FT/S) (FT/D)
BUOY 51001       NOT AVBL
BUOY 51101       1300   72 73   50/  8/ 10 1021.8F   6/15   7/310
BUOY 51100       1200   73 74  110/ 14/ 16 1022.0F
BUOY 51003       1300   75 77   70/ 10/ 12 1019.0F   7/ 8   7
BUOY 51004       1221   77 77   80/ 14/ 17 1018.1F   9/ 9   8/ 80
BARBERS PT BUOY  NOT AVBL
WAIMEA BAY BUOY  1300      76                N/A     4/ 7   2/360
KAILUA BAY BUOY  1300      76                N/A     6/ 8   2/ 10
LANAI BUOY       1300      77                N/A     3/13   2/170
BARBERS PT 2     1300      77                N/A     5/17   5/160
PAUWELA MAUI     1300      75                N/A     5/ 8   2/350
HILO             1300      77                N/A     7/ 8   2/ 80
KANEOHE BAY BUOY 1300      76                N/A     5/ 8   2/ 10
HANALEI KAUAI    1300      76                N/A     4/ 8   2/340
KAHULUI HARBOR   1300   70 77  150/  1/  2 1019.2F
HONOLULU HARBOR  1300   72 76   60/  2/  4 1019.4F
KILO NALU        NOT AVBL
HILO HARBOR      1300   68 76  180/  7/ 10 1019.9F
MOKUOLOE         1300   73 76   80/  9/ 12 1019.8F
NAWILIWILI       1300   70 77  260/  4/  7 1019.6F
WHOTS BUOY       NOT AVBL
BUOY 51028       NOT AVBL
$$

......................KEY........................................
  SKY/WX - SKY CONDITIONS/PRESENT WEATHER
  TMP    - TEMPERATURE IN FAHRENHEIT
  DWPT   - DEWPOINT IN FAHRENHEIT
  RH     - RELATIVE HUMIDITY IN PERCENT
  WIND   - DIRECTION AND SPEED /MPH FOR ISLANDS...KTS FOR BUOYS/
  PRES   - MEAN SEA LEVEL PRESSURE IN INCHES OF HG
  VSB    - VISIBILITY IN MILES
  HX     - HEAT INDEX
  WCI    - WIND CHILL INDEX
  VRB    - VARIABLE WIND DIRECTION
  N/A    - NOT AVAILABLE


USA.gov is the U.S. government's official web portal to all federal, state and local government web resources and services.